[[{"header":{"parameterUnit":"m.s-1","parameterCategory":1,"la1":30.2991,"la2":30.254,"lo1":-89.0895,"lo2":-89.0444,"dy":0.0017,"dx":0.0017,"nx":28,"ny":28,"refTime":"2023-09-05T09:00:00:Z","depth":0,"parameterNumber":2,"parameterNumberName":"U-component_of_WINDS"},"data":[0,0,0,0,0,0,0,0,0,0,0,0,0,0,0,0,0,0,0,0,0,0,0,0,0,0,0,0,0,0,0,0,0,0,0,0,0,0,0,0,0,0,0,0,0,0,0,0,0,0,0,0,0,0,0,0,0,0,-0.8572,-0.8572,0,-0.8569,-0.8569,-0.8569,-0.854,-0.854,-0.8539,-0.8538,-0.8537,-0.8538,-0.8538,0,0,0,0,0,0,0,0,0,0,0,0,0,-0.8554,-0.8554,-0.8572,-0.8572,-0.8572,-0.8569,-0.8569,-0.8569,-0.8541,-0.854,-0.8539,-0.8538,-0.8537,-0.8537,-0.8538,0,0,0,0,0,0,0,0,0,0,0,0,0,-0.8557,-0.8554,-0.8572,-0.8557,-0.8556,-0.8569,-0.8569,-0.8569,-0.8541,-0.854,-0.8539,-0.8538,-0.8536,-0.8537,-0.8538,-0.8566,0,0,-0.8541,-0.8542,0,0,0,0,0,0,0,0,-0.8557,-0.8558,-0.8559,-0.8558,-0.8557,-0.8554,-0.8562,-0.8568,-0.8541,-0.8547,-0.8538,-0.8537,-0.8544,-0.8544,-0.8546,-0.8566,-0.8565,-0.8541,-0.8542,-0.8542,-0.8542,0,0,0,0,0,0,0,-0.8557,-0.8558,-0.8571,-0.8559,-0.8558,-0.8551,-0.855,-0.8563,-0.8551,-0.8546,-0.8544,-0.8544,-0.8543,-0.8545,-0.8545,-0.8565,-0.8541,-0.8542,-0.8543,-0.8543,-0.8607,-0.8609,0,0,0,0,0,0,-0.8558,-0.8558,-0.8571,-0.8571,-0.8554,-0.8552,-0.8552,-0.8556,-0.8551,-0.8549,-0.8545,-0.8543,-0.8544,-0.8544,-0.8545,-0.8577,-0.8542,-0.8543,-0.8544,-0.8606,-0.8608,-0.8609,0,0,0,0,0,0,-0.8558,-0.856,-0.8571,-0.8564,-0.8565,-0.8554,-0.8559,-0.8556,-0.8559,-0.855,-0.8548,-0.8549,-0.8543,-0.8544,-0.8561,-0.8576,-0.8544,-0.8544,-0.8605,-0.8607,-0.8608,-0.864,0,0,0,0,0,0,-0.8558,-0.856,-0.857,-0.8564,-0.8565,-0.8586,-0.856,-0.8557,-0.856,-0.8557,-0.8554,-0.8552,-0.8542,-0.8559,-0.8562,-0.8577,-0.8545,-0.8603,-0.8606,-0.8608,-0.8638,-0.8643,-0.8647,0,0,0,0,0,-0.8557,-0.8579,-0.8571,-0.8572,-0.8577,-0.8587,-0.8587,-0.8575,-0.8562,-0.8572,-0.8566,-0.8552,-0.8574,-0.8561,-0.8564,-0.858,-0.8602,-0.8605,-0.8608,-0.8636,-0.8642,-0.8647,0,0,0,0,0,0,-0.8588,-0.8578,-0.8569,-0.8589,-0.8589,-0.8582,-0.8594,-0.8582,-0.8587,-0.8584,-0.8569,-0.8568,-0.8587,-0.8585,-0.8571,-0.8606,-0.8586,-0.8589,-0.8606,-0.8612,-0.8617,-0.8617,-0.8546,0,0,0,0,0,-0.8597,-0.8605,-0.8597,-0.8616,-0.8616,-0.8605,-0.8609,-0.86,-0.8599,-0.8599,-0.8595,-0.8595,-0.8602,-0.8607,-0.8613,-0.8637,-0.8636,-0.8649,-0.8654,-0.8658,-0.8661,-0.8674,-0.8679,-0.8617,-0.8617,-0.8617,0,0,-0.8616,-0.8612,-0.8618,-0.8622,-0.8621,-0.863,-0.8606,-0.8616,-0.8623,-0.8601,-0.8616,-0.8613,-0.8612,-0.8633,-0.8642,-0.8632,-0.8678,-0.8661,-0.8664,-0.8665,-0.8677,-0.8683,-0.8688,-0.8619,-0.8619,-0.8619,0,0,-0.8656,-0.8653,-0.8669,-0.8668,-0.8666,-0.8659,-0.8663,-0.8657,-0.8654,-0.8669,-0.8653,-0.8661,-0.8673,-0.8673,-0.8675,-0.8714,-0.8702,-0.8717,-0.8742,-0.8754,-0.8759,-0.8763,-0.8777,-0.8782,-0.872,-0.872,-0.872,0,-0.868,-0.8693,-0.8679,-0.869,-0.8693,-0.8672,-0.8688,-0.8688,-0.8689,-0.8691,-0.8679,-0.8694,-0.8692,-0.8713,-0.8722,-0.8724,-0.8728,-0.8717,-0.8759,-0.8763,-0.8767,-0.878,-0.8786,-0.8722,-0.8721,-0.8721,-0.8721,0,-0.8722,-0.8732,-0.8745,-0.8745,-0.8748,-0.8762,-0.8751,-0.8756,-0.8747,-0.8741,-0.8756,-0.8753,-0.8758,-0.8762,-0.8753,-0.8781,-0.8775,-0.8762,-0.8741,-0.8775,-0.8787,-0.8792,-0.8724,-0.8724,-0.8723,-0.8723,0,0,-0.8782,-0.8774,-0.8779,-0.8778,-0.8775,-0.8782,-0.8795,-0.8799,-0.8804,-0.8805,-0.8816,-0.8826,-0.8814,-0.8816,-0.8807,-0.8818,-0.8849,-0.8803,-0.8803,-0.8811,-0.888,-0.889,-0.8896,-0.884,-0.8841,-0.8842,-0.888,0,-0.882,-0.8841,-0.8829,-0.8852,-0.886,-0.8841,-0.8852,-0.8851,-0.8846,-0.8853,-0.8847,-0.8855,-0.8837,-0.8839,-0.8848,-0.8843,-0.8862,-0.884,-0.885,-0.8851,-0.8851,-0.8902,-0.8913,-0.8949,-0.8884,-0.8885,-0.8886,0,-0.8867,-0.8869,-0.8893,-0.8888,-0.8891,-0.8901,-0.8904,-0.891,-0.8909,-0.8904,-0.8906,-0.8894,-0.8907,-0.8887,-0.8904,-0.8889,-0.8893,-0.8891,-0.8892,-0.8893,-0.8871,-0.8904,-0.896,-0.8966,-0.8893,-0.8893,-0.8892,0,-0.8908,-0.8917,-0.8933,-0.8933,-0.8927,-0.8935,-0.8932,-0.893,-0.8933,-0.8936,-0.8938,-0.8942,-0.8945,-0.8948,-0.8938,-0.8924,-0.8957,-0.8936,-0.8954,-0.8954,-0.8962,-0.8961,-0.9019,-0.8964,-0.8964,-0.8964,-0.8963,0,-0.8952,-0.8968,-0.8951,-0.896,-0.8977,-0.8963,-0.898,-0.8976,-0.8974,-0.8982,-0.8966,-0.8975,-0.896,-0.8967,-0.8959,-0.8975,-0.8976,-0.8973,-0.8971,-0.8975,-0.8975,-0.8977,-0.8974,-0.8965,-0.8965,-0.8964,-0.8964,0,-0.9001,-0.899,-0.9006,-0.8998,-0.8997,-0.901,-0.9003,-0.9012,-0.9005,-0.9016,-0.9018,-0.9008,-0.9016,-0.9005,-0.9012,-0.9007,-0.9028,-0.9022,-0.9029,-0.9027,-0.9045,-0.9044,-0.9106,-0.9113,-0.9053,-0.9054,-0.9055,0,-0.903,-0.9041,-0.9035,-0.9039,-0.9037,-0.9045,-0.9048,-0.9034,-0.9038,-0.9037,-0.9046,-0.9052,-0.9056,-0.9069,-0.9063,-0.9068,-0.9062,-0.9083,-0.9063,-0.9066,-0.9062,-0.9062,-0.9063,-0.9088,-0.9088,-0.9089,-0.9089,0,-0.9082,-0.9076,-0.9081,-0.9084,-0.9088,-0.909,-0.909,-0.9095,-0.9081,-0.9086,-0.9093,-0.9096,-0.9103,-0.9109,-0.9112,-0.911,-0.9098,-0.9096,-0.91,-0.9105,-0.9108,-0.9106,-0.904,-0.9095,-0.9094,-0.9094,-0.9094,-0.9093,-0.9122,-0.9131,-0.9128,-0.9134,-0.9133,-0.9133,-0.9141,-0.9135,-0.9141,-0.9144,-0.9136,-0.9145,-0.9143,-0.9146,-0.9146,-0.9153,-0.9144,-0.915,-0.9152,-0.9154,-0.9157,-0.9106,-0.9154,-0.9154,-0.9153,-0.9153,-0.9153,0,-0.9174,-0.9171,-0.9176,-0.9177,-0.9182,-0.9168,-0.9168,-0.9173,-0.9181,-0.9181,-0.9185,-0.9193,-0.9199,-0.9192,-0.9197,-0.9204,-0.9199,-0.9206,-0.9206,-0.9205,-0.9165,-0.916,-0.9211,-0.9211,-0.9211,-0.9211,-0.9211,-0.9211,-0.9202,-0.9216,-0.921,-0.9224,-0.922,-0.9229,-0.923,-0.923,-0.923,-0.9239,-0.9244,-0.9239,-0.9236,-0.9241,-0.9246,-0.9243,-0.9246,-0.9256,-0.9252,-0.9214,-0.9208,-0.9203,-0.9199,-0.9256,-0.9256,-0.9292,-0.9292,-0.9292]},{"header":{"parameterUnit":"m.s-1","parameterCategory":1,"la1":30.2991,"la2":30.254,"lo1":-89.0895,"lo2":-89.0444,"dy":0.0017,"dx":0.0017,"nx":28,"ny":28,"refTime":"2023-09-05T09:00:00:Z","depth":0,"parameterNumber":3,"parameterNumberName":"V-component_of_WINDS"},"data":[0,0,0,0,0,0,0,0,0,0,0,0,0,0,0,0,0,0,0,0,0,0,0,0,0,0,0,0,0,0,0,0,0,0,0,0,0,0,0,0,0,0,0,0,0,0,0,0,0,0,0,0,0,0,0,0,0,0,3.8408,3.8409,0,3.8502,3.8503,3.8504,3.8492,3.8491,3.8489,3.8488,3.8578,3.8582,3.8586,0,0,0,0,0,0,0,0,0,0,0,0,0,3.8216,3.8219,3.8408,3.8409,3.8411,3.8501,3.8503,3.8504,3.8493,3.8491,3.8489,3.8487,3.8577,3.8581,3.8586,0,0,0,0,0,0,0,0,0,0,0,0,0,3.8303,3.822,3.8408,3.8416,3.8418,3.8501,3.8503,3.8504,3.8493,3.8491,3.8489,3.8486,3.8575,3.8581,3.8587,3.8666,0,0,3.8604,3.8606,0,0,0,0,0,0,0,0,3.8298,3.831,3.8414,3.8416,3.8418,3.8483,3.8468,3.8558,3.8494,3.8464,3.8488,3.8485,3.8548,3.8556,3.8578,3.8671,3.8674,3.8604,3.8608,3.861,3.8612,0,0,0,0,0,0,0,3.8292,3.8306,3.8445,3.8415,3.8418,3.8413,3.8423,3.8485,3.8517,3.8467,3.8466,3.8478,3.8549,3.8573,3.858,3.8676,3.8604,3.8609,3.8613,3.8615,3.8838,3.884,0,0,0,0,0,0,3.8285,3.8301,3.8442,3.8448,3.8351,3.8419,3.843,3.8464,3.8517,3.8523,3.8479,3.8477,3.8564,3.8573,3.8583,3.8679,3.861,3.8616,3.8619,3.8835,3.8838,3.8841,0,0,0,0,0,0,3.8281,3.8297,3.8438,3.8374,3.8392,3.8424,3.8463,3.8467,3.8491,3.8526,3.8532,3.8498,3.8563,3.8575,3.8646,3.8682,3.8618,3.8623,3.8832,3.8836,3.884,3.8873,0,0,0,0,0,0,3.8275,3.8296,3.8328,3.8375,3.8395,3.8501,3.8466,3.8471,3.8502,3.8499,3.8545,3.8551,3.8562,3.8638,3.8652,3.8689,3.8628,3.8829,3.8834,3.8838,3.8868,3.8877,3.8884,0,0,0,0,0,3.8268,3.8332,3.8329,3.8346,3.8436,3.8503,3.8515,3.8527,3.8505,3.8536,3.8559,3.8549,3.8677,3.8645,3.8661,3.87,3.8827,3.8832,3.8838,3.8865,3.8875,3.8884,0,0,0,0,0,0,3.8286,3.8339,3.8336,3.8418,3.8456,3.8501,3.8541,3.8538,3.8583,3.8578,3.859,3.8601,3.8672,3.8694,3.8657,3.878,3.8748,3.8757,3.8763,3.8774,3.8781,3.8774,3.8632,0,0,0,0,0,3.83,3.8352,3.8394,3.8462,3.8482,3.8508,3.8538,3.8545,3.8584,3.86,3.8628,3.8665,3.8714,3.8745,3.8791,3.8872,3.8881,3.8907,3.8915,3.8921,3.8928,3.8972,3.8983,3.8859,3.8859,3.8859,0,0,3.8328,3.8363,3.8395,3.8466,3.8497,3.8549,3.8522,3.8578,3.8616,3.8608,3.8677,3.8699,3.8741,3.8817,3.8852,3.8837,3.8965,3.8929,3.8933,3.8937,3.8979,3.899,3.9001,3.8863,3.8862,3.8862,0,0,3.8406,3.8438,3.8498,3.853,3.8578,3.8595,3.8609,3.8655,3.867,3.874,3.8735,3.878,3.8863,3.8893,3.892,3.901,3.9003,3.9025,3.9066,3.9108,3.9118,3.9126,3.9157,3.9168,3.9032,3.9032,3.9032,0,3.8434,3.8513,3.8529,3.8586,3.8617,3.8614,3.8674,3.8704,3.8763,3.8784,3.8767,3.8872,3.89,3.8983,3.9005,3.9027,3.9042,3.9019,3.9115,3.9124,3.9132,3.9162,3.9174,3.9034,3.9034,3.9034,3.9034,0,3.8545,3.86,3.8643,3.8702,3.8738,3.8796,3.8819,3.8853,3.8857,3.8876,3.8946,3.8981,3.9034,3.9055,3.9058,3.9138,3.9127,3.9113,3.9081,3.9146,3.9174,3.9186,3.9038,3.9037,3.9036,3.9036,0,0,3.8635,3.8704,3.8719,3.8746,3.8798,3.884,3.8898,3.8952,3.898,3.9022,3.9069,3.914,3.9128,3.9158,3.9165,3.9202,3.927,3.9183,3.9184,3.9197,3.9358,3.9368,3.9381,3.9267,3.9269,3.9271,3.9354,0,3.8717,3.882,3.8836,3.8926,3.8976,3.8976,3.9025,3.9062,3.9082,3.9126,3.9147,3.9196,3.9177,3.9195,3.9232,3.9254,3.9302,3.9248,3.9309,3.9311,3.9296,3.9395,3.9405,3.9483,3.9365,3.9367,3.9369,0,3.8825,3.8872,3.8967,3.9014,3.9035,3.908,3.9131,3.9174,3.9215,3.9227,3.9261,3.9264,3.9322,3.9289,3.9368,3.9331,3.9357,3.9372,3.9375,3.938,3.9342,3.9401,3.9508,3.9519,3.9386,3.9385,3.9384,0,3.8879,3.8966,3.9034,3.9057,3.9113,3.9144,3.9169,3.9209,3.924,3.9284,3.9304,3.9354,3.938,3.9418,3.9434,3.9409,3.9512,3.948,3.9521,3.9521,3.9541,3.9539,3.9652,3.9561,3.956,3.956,3.956,0,3.8968,3.9026,3.9059,3.9101,3.9166,3.9183,3.9246,3.9269,3.9305,3.935,3.9352,3.9394,3.9414,3.9458,3.9471,3.9534,3.9546,3.9555,3.9558,3.9555,3.9553,3.957,3.9564,3.9563,3.9563,3.9562,3.9561,0,3.9038,3.9063,3.9137,3.9185,3.9198,3.9244,3.9284,3.9324,3.9343,3.94,3.9415,3.9445,3.9498,3.9518,3.9581,3.959,3.9662,3.9661,3.9649,3.9649,3.9688,3.9683,3.9814,3.9831,3.973,3.9731,3.9732,0,3.9092,3.9137,3.919,3.9222,3.9248,3.9298,3.9331,3.9349,3.9383,3.9434,3.9468,3.9521,3.9564,3.9648,3.9674,3.9723,3.9722,3.9765,3.9729,3.9724,3.9721,3.9717,3.9721,3.977,3.9771,3.9772,3.9773,0,3.9185,3.9195,3.9243,3.9296,3.9335,3.9377,3.9417,3.9442,3.9467,3.9504,3.9559,3.9593,3.9659,3.9711,3.9761,3.9785,3.9782,3.9784,3.9796,3.9792,3.9782,3.9787,3.9665,3.9781,3.978,3.9779,3.9779,3.9778,3.9248,3.9288,3.9332,3.9385,3.9418,3.9456,3.9495,3.9521,3.9568,3.9624,3.9632,3.969,3.9731,3.9798,3.9824,3.9869,3.9857,3.9875,3.9879,3.9882,3.9885,3.9777,3.9878,3.9878,3.9878,3.9878,3.9878,0,3.934,3.9368,3.9417,3.9474,3.9516,3.9513,3.9558,3.9592,3.9644,3.9683,3.9726,3.9789,3.9839,3.9871,3.9921,3.9951,3.9952,3.9964,3.9961,3.9966,3.9893,3.9877,3.9963,3.9963,3.9963,3.9963,3.9963,3.9963,3.9392,3.9459,3.9475,3.9558,3.9586,3.9644,3.967,3.9704,3.9735,3.9806,3.9849,3.987,3.9905,3.9959,4.0005,4.0013,4.003,4.0043,4.005,3.998,3.9971,3.9963,3.9948,4.0048,4.0048,4.012,4.012,4.0121]}]]